Weather History for Kaiser, MO

Change the Weather History Date:

Wednesday, December 12, 2012

  Actual Average Record
Temperature  
Mean Temperature 36 °F -  
Max Temperature 51 °F 44 °F 53 °F (2004)
Min Temperature 21 °F 27 °F 8 °F (2013)
Degree Days  
Heating Degree Days 29    
Moisture  
Dew Point 16 °F    
Average Humidity 48    
Maximum Humidity 80    
Minimum Humidity 21    
Precipitation  
Precipitation 0.00 in - - ()
Sea Level Pressure  
Sea Level Pressure 30.25 in    
Wind  
Wind Speed 4 mph (South)    
Max Wind Speed 13 mph    
Max Gust Speed -    
Visibility 10 miles    
Events      
Averages and records for this station are not official NWS values.
T = Trace of Precipitation, MM = Missing Value Source: NWS Daily Summary

Daily Weather History Graph

Daily Weather History Graph

Search for Another Location

Airport:

Trip Planner

Search our weather history database for the weather conditions in past years. The results will help you decide how hot, cold, wet, or windy it might be!

Date:

Astronomy

Dec. 12, 2012 Rise Set
Actual Time 7:17 AM CST 4:50 PM CST
Civil Twilight 6:48 AM CST 5:20 PM CST
Nautical Twilight 6:15 AM CST 5:53 PM CST
Astronomical Twilight 5:42 AM CST 6:25 PM CST
Moon 6:22 AM CST (12/12) 4:28 PM CST (12/12)
Length of Visible Light 10h 32m
Length of Day
9h 33m
Waning Crescent, 1% of the Moon is Illuminated
Dec 12
Waning Crescent
Dec 13
New
Dec 19
First Quarter
Dec 28
Full
Jan 4
Last Quarter

Hourly Weather History & Observations

Time (CST) Temp. Windchill Dew Point Humidity Pressure Visibility Wind Dir Wind Speed Gust Speed Precip Events Conditions
12:15 AM 24.8 °F 20.5 °F 17.6 °F 74% 30.22 in 10.0 mi SE 3.5 mph - N/A   Clear
12:35 AM 24.8 °F - 17.6 °F 74% 30.22 in 10.0 mi Calm Calm - N/A   Clear
12:55 AM 24.8 °F 20.5 °F 15.8 °F 69% 30.22 in 10.0 mi SE 3.5 mph - N/A   Clear
1:15 AM 24.8 °F 20.5 °F 15.8 °F 69% 30.22 in 10.0 mi SE 3.5 mph - N/A   Clear
1:35 AM 23.0 °F - 17.6 °F 80% 30.22 in 10.0 mi Calm Calm - N/A   Clear
1:55 AM 24.8 °F 20.5 °F 17.6 °F 74% 30.22 in 10.0 mi ESE 3.5 mph - N/A   Clear
2:15 AM 23.0 °F - 15.8 °F 74% 30.23 in 10.0 mi Calm Calm - N/A   Clear
2:35 AM 23.0 °F - 17.6 °F 80% 30.23 in 10.0 mi Calm Calm - N/A   Clear
2:55 AM 23.0 °F - 15.8 °F 74% 30.22 in 10.0 mi Calm Calm - N/A   Clear
3:15 AM 23.0 °F 18.4 °F 15.8 °F 74% 30.22 in 10.0 mi ESE 3.5 mph - N/A   Clear
3:35 AM 23.0 °F - 17.6 °F 80% 30.22 in 10.0 mi Calm Calm - N/A   Clear
3:55 AM 23.0 °F - 17.6 °F 80% 30.22 in 10.0 mi Calm Calm - N/A   Clear
4:15 AM 23.0 °F - 17.6 °F 80% 30.22 in 10.0 mi Calm Calm - N/A   Clear
4:35 AM 23.0 °F 18.4 °F 17.6 °F 80% 30.23 in 10.0 mi SE 3.5 mph - N/A   Clear
4:55 AM 21.2 °F 16.4 °F 15.8 °F 80% 30.23 in 10.0 mi SE 3.5 mph - N/A   Clear
5:15 AM 23.0 °F - 15.8 °F 74% 30.24 in 10.0 mi Calm Calm - N/A   Clear
5:35 AM 23.0 °F 18.4 °F 17.6 °F 80% 30.24 in 10.0 mi SSE 3.5 mph - N/A   Clear
6:15 AM 23.0 °F 18.4 °F 15.8 °F 74% 30.26 in 10.0 mi SE 3.5 mph - N/A   Clear
6:35 AM 24.8 °F - 15.8 °F 69% 30.27 in 10.0 mi Calm Calm - N/A   Clear
7:15 AM 23.0 °F 18.4 °F 15.8 °F 74% 30.27 in 10.0 mi SSE 3.5 mph - N/A   Clear
7:35 AM 21.2 °F - 15.8 °F 80% 30.28 in 10.0 mi Calm Calm - N/A   Clear
7:55 AM 21.2 °F 14.9 °F 15.8 °F 80% 30.28 in 10.0 mi SE 4.6 mph - N/A   Clear
8:15 AM 24.8 °F 19.1 °F 15.8 °F 69% 30.29 in 10.0 mi SSE 4.6 mph - N/A   Clear
8:35 AM 26.6 °F - 17.6 °F 69% 30.29 in 10.0 mi Calm Calm - N/A   Clear
8:55 AM 28.4 °F 24.6 °F 17.6 °F 64% 30.29 in 10.0 mi SSE 3.5 mph - N/A   Partly Cloudy
9:15 AM 30.2 °F 26.7 °F 19.4 °F 64% 30.30 in 10.0 mi SSE 3.5 mph - N/A   Clear
9:35 AM 33.8 °F 28.6 °F 19.4 °F 56% 30.31 in 10.0 mi South 5.8 mph - N/A   Clear
9:55 AM 35.6 °F 30.7 °F 19.4 °F 52% 30.31 in 10.0 mi South 5.8 mph - N/A   Clear
10:15 AM 37.4 °F 33.8 °F 19.4 °F 48% 30.31 in 10.0 mi South 4.6 mph - N/A   Clear
10:35 AM 41.0 °F 38.0 °F 21.2 °F 45% 30.31 in 10.0 mi South 4.6 mph - N/A   Clear
10:55 AM 44.6 °F 41.4 °F 19.4 °F 37% 30.31 in 10.0 mi South 5.8 mph - N/A   Clear
11:15 AM 46.4 °F 42.4 °F 15.8 °F 29% 30.30 in 10.0 mi SW 8.1 mph - N/A   Clear
11:35 AM 46.4 °F 41.9 °F 17.6 °F 32% 30.30 in 10.0 mi SW 9.2 mph - N/A   Clear
11:55 AM 48.2 °F - 15.8 °F 27% 30.29 in 10.0 mi SSW 8.1 mph - N/A   Clear
12:15 PM 50.0 °F - 14.0 °F 24% 30.28 in 10.0 mi South 12.7 mph - N/A   Clear
12:35 PM 50.0 °F - 12.2 °F 22% 30.27 in 10.0 mi South 12.7 mph - N/A   Clear
12:55 PM 50.0 °F - 12.2 °F 22% 30.26 in 10.0 mi South 9.2 mph - N/A   Clear
1:15 PM 51.8 °F - 12.2 °F 21% 30.26 in 10.0 mi SSW 6.9 mph - N/A   Clear
1:35 PM 51.8 °F - 12.2 °F 21% 30.25 in 10.0 mi South 10.4 mph - N/A   Clear
1:55 PM 51.8 °F - 14.0 °F 22% 30.24 in 10.0 mi SW 10.4 mph - N/A   Clear
2:15 PM 51.8 °F - 14.0 °F 22% 30.24 in 10.0 mi SW 11.5 mph - N/A   Clear
2:35 PM 51.8 °F - 15.8 °F 24% 30.24 in 10.0 mi South 9.2 mph - N/A   Clear
2:55 PM 51.8 °F - 15.8 °F 24% 30.23 in 10.0 mi SW 11.5 mph - N/A   Clear
3:15 PM 51.8 °F - 15.8 °F 24% 30.23 in 10.0 mi South 6.9 mph - N/A   Clear
3:35 PM 51.8 °F - 14.0 °F 22% 30.24 in 10.0 mi SSW 10.4 mph - N/A   Clear
3:55 PM 51.8 °F - 14.0 °F 22% 30.25 in 10.0 mi SW 9.2 mph - N/A   Clear
4:15 PM 50.0 °F - 14.0 °F 24% 30.25 in 10.0 mi SSW 6.9 mph - N/A   Clear
4:35 PM 48.2 °F - 12.2 °F 24% 30.24 in 10.0 mi South 6.9 mph - N/A   Clear
4:55 PM 46.4 °F 43.5 °F 12.2 °F 25% 30.23 in 10.0 mi South 5.8 mph - N/A   Clear
5:15 PM 46.4 °F 44.3 °F 12.2 °F 25% 30.24 in 10.0 mi South 4.6 mph - N/A   Clear
5:35 PM 44.6 °F 42.2 °F 14.0 °F 29% 30.24 in 10.0 mi SSE 4.6 mph - N/A   Clear
5:55 PM 44.6 °F 41.4 °F 14.0 °F 29% 30.24 in 10.0 mi SSE 5.8 mph - N/A   Clear
6:15 PM 42.8 °F 39.3 °F 14.0 °F 31% 30.24 in 10.0 mi SSE 5.8 mph - N/A   Clear
6:35 PM 42.8 °F 40.1 °F 14.0 °F 31% 30.24 in 10.0 mi South 4.6 mph - N/A   Clear
6:55 PM 42.8 °F 40.1 °F 14.0 °F 31% 30.24 in 10.0 mi South 4.6 mph - N/A   Clear
7:15 PM 41.0 °F 37.1 °F 14.0 °F 33% 30.24 in 10.0 mi SSE 5.8 mph - N/A   Clear
7:35 PM 39.2 °F 35.0 °F 14.0 °F 36% 30.24 in 10.0 mi SSE 5.8 mph - N/A   Clear
7:55 PM 39.2 °F 35.0 °F 15.8 °F 39% 30.24 in 10.0 mi SSE 5.8 mph - N/A   Clear
8:15 PM 39.2 °F 33.6 °F 14.0 °F 36% 30.24 in 10.0 mi SSE 8.1 mph - N/A   Clear
8:35 PM 39.2 °F 33.6 °F 14.0 °F 36% 30.24 in 10.0 mi SSE 8.1 mph - N/A   Clear
8:55 PM 37.4 °F 32.1 °F 14.0 °F 38% 30.23 in 10.0 mi SSE 6.9 mph - N/A   Clear
9:15 PM 37.4 °F 33.8 °F 14.0 °F 38% 30.24 in 10.0 mi South 4.6 mph - N/A   Clear
9:35 PM 37.4 °F 32.8 °F 14.0 °F 38% 30.25 in 10.0 mi South 5.8 mph - N/A   Clear
9:55 PM 37.4 °F 32.1 °F 14.0 °F 38% 30.24 in 10.0 mi SSE 6.9 mph - N/A   Clear
10:15 PM 37.4 °F 33.8 °F 15.8 °F 41% 30.25 in 10.0 mi SSE 4.6 mph - N/A   Clear
10:35 PM 37.4 °F 32.8 °F 15.8 °F 41% 30.26 in 10.0 mi South 5.8 mph - N/A   Clear
10:55 PM 37.4 °F 32.1 °F 15.8 °F 41% 30.26 in 10.0 mi South 6.9 mph - N/A   Clear
11:15 PM 37.4 °F 32.1 °F 15.8 °F 41% 30.26 in 10.0 mi South 6.9 mph - N/A   Clear
11:35 PM 37.4 °F 32.8 °F 15.8 °F 41% 30.27 in 10.0 mi South 5.8 mph - N/A   Clear
11:55 PM 37.4 °F 32.1 °F 15.8 °F 41% 30.27 in 10.0 mi South 6.9 mph - N/A   Clear